Weather History for KHTS - March, 2012

Change the Weather History Date:

Tuesday, March 27, 2012

  Actual Average Record
Temperature  
Mean Temperature 50 °F 50 °F  
Max Temperature 67 °F 61 °F 87 °F (1950)
Min Temperature 32 °F 39 °F 16 °F (1947)
Degree Days  
Heating Degree Days 15 15  
Month to date heating degree days 264 538  
Since 1 July heating degree days 3305 4039  
Cooling Degree Days 0 0  
Month to date cooling degree days 42 0  
Year to date cooling degree days 42 0  
Moisture  
Dew Point 24 °F    
Average Humidity 42    
Maximum Humidity 64    
Minimum Humidity 20    
Precipitation  
Precipitation 0.00 in 0.13 in 1.90 in (1913)
Month to date precipitation 2.45 3.41  
Year to date precipitation 7.00 9.45  
Snow  
Snow 0.00 in - - ()
Month to date snowfall 3.4  
Since 1 September snowfall 5.5  
Snow Depth 0.00 in    
Sea Level Pressure  
Sea Level Pressure 30.23 in    
Wind  
Wind Speed 4 mph (NE)    
Max Wind Speed 12 mph    
Max Gust Speed 17 mph    
Visibility 10 miles    
Events      
T = Trace of Precipitation, MM = Missing Value Source: NWS Daily Summary

Daily Weather History Graph

Daily Weather History Graph

Search for Another Location

Airport or City:

Trip Planner

Search our weather history database for the weather conditions in past years. The results will help you decide how hot, cold, wet, or windy it might be!

Date:

Astronomy

Mar. 27, 2012 Rise Set
Actual Time 7:22 AM EDT 7:49 PM EDT
Civil Twilight 6:55 AM EDT 8:15 PM EDT
Nautical Twilight 6:24 AM EDT 8:47 PM EDT
Astronomical Twilight 5:52 AM EDT 9:19 PM EDT
Moon 9:55 AM EDT (3/27) No Moon Set
Length of Visible Light 13h 20m
Length of Day
12h 27m
Waxing Crescent, 22% of the Moon is Illuminated
Mar 27
Waxing Crescent
Mar 30
First Quarter
Apr 6
Full
Apr 13
Last Quarter
Apr 21
New

Hourly Weather History & Observations

Time (EDT) Temp. Windchill Dew Point Humidity Pressure Visibility Wind Dir Wind Speed Gust Speed Precip Events Conditions
12:51 AM 39.9 °F 35.1 °F 21.0 °F 47% 30.30 in 10.0 mi NE 6.9 mph - N/A   Clear
1:51 AM 37.9 °F 33.5 °F 21.9 °F 53% 30.30 in 10.0 mi NE 5.8 mph - N/A   Clear
2:51 AM 37.0 °F 30.4 °F 21.9 °F 54% 30.32 in 10.0 mi NE 9.2 mph - N/A   Clear
3:51 AM 36.0 °F 30.3 °F 21.9 °F 57% 30.31 in 10.0 mi NE 6.9 mph - N/A   Clear
4:51 AM 34.0 °F 29.8 °F 21.9 °F 61% 30.31 in 10.0 mi NE 4.6 mph - N/A   Clear
5:51 AM 33.1 °F 28.7 °F 23.0 °F 66% 30.31 in 10.0 mi NE 4.6 mph - N/A   Clear
6:51 AM 33.1 °F 30.0 °F 23.0 °F 66% 30.32 in 10.0 mi NNE 3.5 mph - N/A   Clear
7:51 AM 33.8 °F 29.6 °F 23.0 °F 65% 30.33 in 10.0 mi NE 4.6 mph - N/A   Clear
8:51 AM 36.0 °F 30.3 °F 24.1 °F 62% 30.34 in 10.0 mi ENE 6.9 mph - N/A   Clear
9:51 AM 41.0 °F 37.1 °F 24.1 °F 51% 30.32 in 10.0 mi SE 5.8 mph - N/A   Clear
10:51 AM 45.0 °F 41.2 °F 25.0 °F 46% 30.32 in 10.0 mi ENE 6.9 mph - N/A   Clear
11:51 AM 50.0 °F - 26.1 °F 39% 30.30 in 10.0 mi Calm Calm - N/A   Clear
12:51 PM 54.0 °F - 27.0 °F 35% 30.27 in 10.0 mi NNE 5.8 mph - N/A   Clear
1:51 PM 57.9 °F - 24.1 °F 27% 30.25 in 10.0 mi Variable 3.5 mph - N/A   Clear
2:51 PM 61.0 °F - 24.1 °F 24% 30.22 in 10.0 mi Variable 4.6 mph - N/A   Clear
3:51 PM 64.0 °F - 26.1 °F 24% 30.19 in 10.0 mi NW 5.8 mph - N/A   Clear
4:51 PM 64.4 °F - 24.8 °F 22% 30.17 in 10.0 mi NNE 3.5 mph - N/A   Clear
5:51 PM 64.9 °F - 26.1 °F 23% 30.16 in 10.0 mi Variable 4.6 mph - N/A   Clear
6:51 PM 66.0 °F - 25.0 °F 21% 30.14 in 10.0 mi Calm Calm - N/A   Clear
7:51 PM 62.1 °F - 24.1 °F 23% 30.12 in 10.0 mi East 3.5 mph - N/A   Clear
8:51 PM 60.1 °F - 24.1 °F 25% 30.10 in 10.0 mi ESE 4.6 mph - N/A   Clear
9:51 PM 57.0 °F - 26.1 °F 30% 30.09 in 10.0 mi East 4.6 mph - N/A   Clear
10:51 PM 53.1 °F - 28.0 °F 38% 30.06 in 10.0 mi Calm Calm - N/A   Clear
11:51 PM 52.0 °F - 30.0 °F 43% 30.05 in 10.0 mi Calm Calm - N/A   Clear